Overview Statistics Trail Chart Weather Telemetry Raw packets
 

This is the latest recevied weather packets stored in our database for station/object KY0TEQ-13. If no packets are shown the sender has not sent any weather packets the latest 10 day(s).

<< 53 54 55 56 57 58 59 >>
Time Temp. Humidity Pressure Rain* Wind** Luminosity Snow
1788320414 16.67° C 43% 1308.9 hPa 0 mm - 0 W/m² -
1788320114 16.11° C 42% 1309.1 hPa 0 mm - 0 W/m² -
1788319814 15.56° C 46% 1308.6 hPa 0 mm - 0 W/m² -
1788319508 16.11° C 47% 1308.9 hPa 0 mm - 0 W/m² -
1788319202 16.11° C 45% 1308.8 hPa 0 mm - 0 W/m² -
1788318892 16.67° C 45% 1308.6 hPa 0 mm - 0 W/m² -
1788318589 16.67° C 43% 1308.5 hPa 0 mm - 0 W/m² -
1788318288 17.22° C 43% 1308.5 hPa 0 mm - 0 W/m² -
1788317986 16.67° C 43% 1308.4 hPa 0 mm - 0 W/m² -
1788317683 16.67° C 44% 1308.4 hPa 0 mm - 0 W/m² -
1788317383 17.78° C 43% 1308.4 hPa 0 mm - 0 W/m² -
1788317078 19.44° C 36% 1308.3 hPa 0 mm - 0 W/m² -
1788316773 19.44° C 36% 1308.3 hPa 0 mm - 0 W/m² -
1788316469 20° C 34% 1308.4 hPa 0 mm - 0 W/m² -
1788316168 20° C 33% 1308.2 hPa 0 mm - 0 W/m² -
1788315863 20.56° C 33% 1308.3 hPa 0 mm - 0 W/m² -
1788315559 20° C 34% 1308.3 hPa 0 mm - 0 W/m² -
1788315259 20.56° C 33% 1308.2 hPa 0 mm - 0 W/m² -
1788314954 20.56° C 33% 1308.2 hPa 0 mm - 0 W/m² -
1788314651 20.56° C 33% 1308 hPa 0 mm - 0 W/m² -
1788314346 20.56° C 33% 1308 hPa 0 mm - 0 W/m² -
1788314041 20.56° C 34% 1307.9 hPa 0 mm - 0 W/m² -
1788313737 20.56° C 34% 1307.9 hPa 0 mm - 1 W/m² -
1788313433 20.56° C 34% 1307.8 hPa 0 mm - 2 W/m² -
1788313132 21.11° C 34% 1307.7 hPa 0 mm - 4 W/m² -

* Rain latest hour (hover to see other rain measurements)
** Current wind speed in m/s (hover to see current wind gust speed)